Date,TemperatureHighF,TemperatureAvgF,TemperatureLowF,DewpointHighF,DewpointAvgF,DewpointLowF,HumidityHigh,HumidityAvg,HumidityLow,PressureMaxIn,PressureMinIn,WindSpeedMaxMPH,WindSpeedAvgMPH,GustSpeedMaxMPH,PrecipitationSumIn
2013-1-1,82,80,78,66,65,64,65,61,55,30.07,29.95,7,6,13,0.00
2013-1-2,81,80,80,65,64,64,60,58,56,30.01,29.92,10,6,13,0.00
2013-1-3,81,80,79,66,65,62,63,60,56,30.01,29.94,8,8,12,0.00
2013-1-4,81,80,80,66,64,62,60,58,55,30.04,29.99,8,7,11,0.00
2013-1-5,82,81,79,67,65,62,63,59,57,30.07,29.98,8,7,14,0.00
2013-1-6,81,80,79,63,62,61,59,56,54,30.09,29.97,8,6,14,0.00
2013-1-7,82,81,79,63,33,-100,57,43,51,30.03,29.95,7,6,12,0.00
2013-1-8,81,80,79,63,62,59,58,54,50,29.94,29.85,8,7,12,0.00
2013-1-9,79,79,79,60,60,60,53,53,53,29.96,29.96,6,6,8,0.00
2013-1-10,80,68,78,68,41,-100,66,53,57,0.00,40.00,10,7,13,0.00
2013-1-11,81,80,80,67,64,61,64,58,53,0.00,40.00,6,5,10,0.00
2013-1-12,81,80,79,67,67,66,67,64,62,0.00,40.00,7,6,11,0.00
2013-1-13,81,81,80,68,66,65,64,62,60,0.00,40.00,12,9,15,0.00
2013-1-14,84,80,75,70,68,64,82,67,52,0.00,40.00,9,6,14,0.00
2013-1-15,80,75,71,71,69,67,97,81,67,0.00,40.00,8,4,13,0.72
2013-1-16,83,74,66,69,66,60,96,75,49,0.00,40.00,11,5,17,0.01
2013-1-17,80,72,64,65,62,59,89,71,56,0.00,40.00,8,4,11,0.00
2013-1-18,80,73,67,63,61,58,83,67,52,0.00,40.00,10,7,15,0.00
2013-1-19,82,72,61,58,52,42,80,51,34,0.00,40.00,19,7,31,0.00
2013-1-20,79,71,62,62,55,42,74,57,45,0.00,40.00,8,5,13,0.00
2013-1-21,80,72,63,63,60,55,78,67,54,0.00,40.00,10,4,15,0.00
2013-1-22,82,73,67,64,60,56,74,64,52,0.00,40.00,8,5,12,0.00
2013-1-23,81,72,62,66,62,57,87,70,55,0.00,40.00,9,4,13,0.00
2013-1-24,81,74,66,68,63,57,78,69,60,0.00,40.00,9,4,13,0.00
2013-1-25,81,74,67,67,64,59,80,71,60,0.00,40.00,12,6,17,0.00
2013-1-26,81,74,68,66,62,58,79,66,54,0.00,40.00,13,7,19,0.00
2013-1-27,82,75,65,66,61,54,74,62,49,0.00,40.00,8,6,14,0.00
2013-1-28,83,75,69,63,60,56,68,60,46,0.00,40.00,10,5,15,0.00
2013-1-29,82,75,68,69,65,60,94,74,58,0.00,40.00,10,5,15,0.11
2013-1-30,82,74,68,69,67,64,97,80,56,0.00,40.00,9,6,15,1.12
2013-1-31,81,75,67,69,67,62,86,76,66,0.00,40.00,9,5,12,0.00
2013-2-1,82,74,67,68,65,61,85,74,60,0.00,40.00,9,5,14,0.00
2013-2-2,82,75,69,65,62,60,78,66,54,0.00,40.00,8,5,12,0.00
2013-2-3,80,74,67,65,63,59,80,69,58,0.00,40.00,8,6,14,0.00
2013-2-4,79,73,67,63,61,56,77,66,55,0.00,40.00,8,5,13,0.00
2013-2-5,81,72,63,65,61,56,83,68,51,0.00,40.00,8,5,12,0.00
2013-2-6,81,72,62,66,60,55,83,67,51,0.00,40.00,9,5,11,0.00
2013-2-7,81,74,67,66,63,59,77,68,57,0.00,40.00,8,5,12,0.00
2013-2-8,82,74,66,68,63,56,77,69,61,0.00,40.00,8,5,12,0.00
2013-2-9,82,75,66,66,62,59,79,67,50,0.00,40.00,8,5,13,0.00
2013-2-10,81,75,67,67,64,58,79,69,59,0.00,40.00,9,6,14,0.00
2013-2-11,82,74,64,67,63,56,78,69,54,30.12,30.06,9,5,14,0.00
2013-2-12,80,72,65,65,61,55,78,68,58,30.13,30.04,10,5,14,0.00
2013-2-13,80,73,64,60,57,51,73,59,45,30.08,29.97,8,5,14,0.00
2013-2-14,79,72,61,62,58,53,78,64,52,30.05,29.95,7,4,12,0.00
2013-2-15,81,73,65,65,60,54,74,63,44,30.05,29.95,12,6,19,0.00
2013-2-16,80,73,65,65,60,54,71,64,53,30.06,29.96,9,6,14,0.00
2013-2-17,81,74,66,64,61,57,79,64,54,30.07,29.97,9,6,15,0.00
2013-2-18,80,74,69,64,62,57,75,65,56,30.05,29.96,10,5,16,0.00
2013-2-19,81,74,67,63,61,57,79,64,52,30.07,29.96,11,6,14,0.00
2013-2-20,82,74,64,65,61,54,74,65,53,30.08,29.99,8,5,14,0.00
2013-2-21,81,74,67,66,62,56,73,65,54,30.08,30.00,9,5,13,0.00
2013-2-22,81,75,71,67,63,57,79,68,54,30.07,29.97,9,6,14,0.00
2013-2-23,82,74,67,67,63,58,85,70,55,30.07,29.98,9,6,15,0.30
2013-2-24,81,73,65,66,63,59,84,71,60,30.05,29.95,8,5,13,0.30
2013-2-25,81,73,64,67,63,60,87,70,57,30.08,29.99,10,6,16,0.01
2013-2-26,81,72,65,65,60,57,78,66,54,30.08,30.01,10,6,16,0.01
2013-2-27,82,74,66,65,61,58,78,66,55,30.12,30.03,9,5,13,0.00
2013-2-28,81,73,65,63,59,55,74,63,50,30.13,30.04,8,6,13,0.00
2013-3-1,79,73,66,62,58,55,74,62,47,30.12,30.00,8,5,12,0.00
2013-3-2,80,74,67,63,59,57,82,62,48,30.11,30.00,8,5,14,0.00
2013-3-3,81,73,65,62,59,55,74,62,52,30.11,30.03,10,6,16,0.00
2013-3-4,81,74,64,63,59,55,74,61,52,30.13,30.04,9,6,13,0.00
2013-3-5,81,74,67,62,58,54,69,59,48,30.11,30.02,10,6,15,0.00
2013-3-6,82,73,64,64,59,52,73,61,52,30.11,30.02,10,5,14,0.00
2013-3-7,81,73,66,65,60,52,71,63,53,30.07,29.96,9,6,12,0.00
2013-3-8,81,73,65,65,61,55,74,66,54,30.04,29.89,10,6,14,0.00
2013-3-9,82,75,67,67,61,52,75,62,48,29.97,29.87,15,8,24,0.00
2013-3-10,84,77,65,70,65,54,87,67,53,30.01,29.89,14,8,23,0.26
2013-3-11,81,73,64,69,66,61,93,79,64,30.04,29.94,10,5,16,0.67
2013-3-12,80,73,68,69,66,62,94,79,59,30.04,29.95,10,5,15,0.18
2013-3-13,81,74,65,67,63,59,85,70,56,30.05,29.96,8,5,12,0.04
2013-3-14,81,74,67,67,64,59,78,69,54,30.06,29.97,9,5,13,0.00
2013-3-15,79,74,69,68,65,63,92,76,65,30.00,29.90,9,5,13,0.32
2013-3-16,77,72,67,66,62,58,87,72,57,30.00,29.90,10,5,16,0.04
2013-3-17,78,72,67,61,59,57,77,64,52,30.01,29.92,10,5,16,0.00
2013-3-18,81,72,61,60,58,54,87,62,43,30.01,29.91,11,5,16,0.00
2013-3-19,81,73,63,63,59,54,78,62,44,30.01,29.92,10,6,14,0.00
2013-3-20,80,73,67,69,62,54,87,70,47,30.05,29.94,12,4,20,0.04
2013-3-21,83,75,67,69,65,60,83,72,53,30.05,29.94,11,6,17,0.04
2013-3-22,82,76,70,68,66,62,80,71,57,30.04,29.92,12,7,17,0.00
2013-3-23,83,75,69,69,66,62,87,72,56,29.99,29.89,14,6,22,0.00
2013-3-24,83,75,71,69,66,63,90,76,53,30.03,29.90,13,6,21,0.02
2013-3-25,83,76,69,70,66,62,84,71,56,29.99,29.91,13,7,17,0.01
2013-3-26,83,76,70,69,65,62,79,68,59,30.02,29.92,11,6,14,0.00
2013-3-27,82,75,69,69,64,60,74,68,54,30.00,29.91,9,6,14,0.00
2013-3-28,82,79,74,67,64,60,67,61,57,30.00,29.91,12,8,18,0.01
2013-3-29,82,75,68,68,63,58,76,67,51,30.02,29.93,11,6,17,0.00
2013-3-30,80,74,69,68,63,-100,77,71,64,30.04,29.93,11,6,16,0.00
2013-3-31,81,74,67,66,61,56,89,65,47,30.00,29.93,14,6,21,0.05
2013-4-1,78,72,64,58,55,51,70,55,41,30.01,29.92,12,7,16,0.01
2013-4-2,80,73,65,56,55,53,68,54,42,30.04,29.95,13,8,18,0.00
2013-4-3,82,74,65,62,57,53,64,56,45,30.07,29.96,10,6,14,0.00
2013-4-4,82,74,64,63,59,52,68,59,50,30.07,29.97,8,5,12,0.00
2013-4-5,82,75,67,65,61,56,74,62,53,30.10,29.99,10,5,14,0.00
2013-4-6,84,76,69,68,64,57,77,66,56,30.13,30.02,10,6,14,0.00
2013-4-7,82,78,72,69,66,62,80,68,55,30.15,30.04,10,6,15,0.00
2013-4-8,82,76,70,68,64,58,76,67,59,30.08,29.96,8,5,12,0.00
2013-4-9,82,76,69,68,66,64,91,73,58,30.05,29.95,9,5,12,0.36
2013-4-10,83,77,68,69,66,59,88,69,56,30.05,29.93,9,6,14,0.00
2013-4-11,83,78,72,69,66,61,79,67,55,30.02,29.91,10,5,14,0.00
2013-4-12,83,77,71,69,66,62,84,70,58,29.97,29.89,10,6,14,0.04
2013-4-13,84,77,71,69,67,65,88,72,57,29.96,29.85,15,8,22,0.04
2013-4-14,82,76,69,69,66,62,81,70,58,29.98,29.87,10,5,16,0.00
2013-4-15,86,78,68,69,66,61,82,67,50,30.03,29.92,12,6,17,0.00
2013-4-16,84,77,72,70,68,65,86,74,62,30.08,29.98,11,6,15,0.01
2013-4-17,83,77,71,72,66,61,88,70,55,30.10,30.00,8,5,14,0.09
2013-4-18,82,75,66,69,64,60,85,69,56,30.10,30.02,8,4,12,0.09
2013-4-19,84,77,70,68,65,62,79,68,57,30.08,30.00,10,6,14,0.00
2013-4-20,84,78,70,68,65,61,76,65,54,30.07,30.00,9,5,12,0.00
2013-4-21,83,77,69,69,65,58,79,68,57,30.05,29.96,11,6,15,0.00
2013-4-22,85,78,70,69,66,63,81,67,55,30.04,29.96,11,6,17,0.01
2013-4-23,84,78,68,69,66,59,77,67,55,30.06,29.98,9,6,15,0.00
2013-4-24,83,79,70,71,67,62,88,68,55,30.07,29.98,13,6,19,0.00
2013-4-25,84,77,70,70,65,59,88,68,51,30.05,29.95,9,5,15,0.00
2013-4-26,83,77,72,67,65,61,76,67,57,30.01,29.95,9,5,13,0.00
2013-4-27,84,78,70,69,65,61,75,65,54,30.04,29.94,9,6,15,0.00
2013-4-28,86,78,69,68,64,58,72,62,49,30.04,29.92,14,8,19,0.00
2013-4-29,85,78,71,71,66,60,90,66,54,30.00,29.90,11,6,16,0.08
2013-4-30,83,77,70,70,68,65,92,73,59,30.01,29.94,11,6,16,0.09
2013-5-1,83,77,68,67,64,60,84,66,48,30.04,29.96,9,6,14,0.00
2013-5-2,84,78,72,69,67,62,77,68,56,30.06,29.99,10,7,14,0.00
2013-5-3,83,77,70,69,67,66,89,72,57,30.05,29.97,9,7,15,0.12
2013-5-4,80,76,73,70,67,65,89,75,66,30.01,29.91,9,6,13,0.04
2013-5-5,84,77,70,68,66,63,81,68,51,29.95,29.87,11,6,17,0.01
2013-5-6,83,78,72,68,66,63,78,67,55,29.97,29.87,10,6,16,0.00
2013-5-7,84,78,70,68,66,62,79,67,53,29.98,29.89,9,6,13,0.00
2013-5-8,84,78,71,70,66,61,74,67,56,30.02,29.92,9,5,12,0.00
2013-5-9,86,79,72,72,68,64,92,70,54,30.07,29.95,12,6,17,0.22
2013-5-10,83,75,71,73,67,-100,90,82,68,30.08,30.00,8,4,13,0.22
2013-5-11,84,78,74,73,70,-100,88,78,68,30.08,29.97,10,6,14,0.01
2013-5-12,85,78,74,73,71,69,93,81,63,30.05,29.96,10,6,14,0.31
2013-5-13,85,77,73,72,70,66,93,80,63,30.03,29.96,9,6,14,0.20
2013-5-14,83,76,71,73,70,66,91,81,67,30.07,29.98,8,5,11,0.72
2013-5-15,84,77,71,71,69,66,92,76,60,30.09,30.01,8,5,11,0.49
2013-5-16,85,71,71,69,49,-100,82,67,54,30.09,30.00,9,6,15,0.01
2013-5-17,85,78,71,68,60,-100,76,63,51,30.05,29.95,9,7,15,0.00
2013-5-18,83,78,73,69,60,-100,78,63,59,30.02,29.95,11,6,18,0.00
2013-5-19,84,78,72,70,67,65,78,68,56,29.99,29.90,10,6,17,0.00
2013-5-20,83,77,69,69,67,64,88,72,59,29.98,29.89,9,5,14,0.08
2013-5-21,85,78,68,69,65,59,78,64,47,30.00,29.91,10,6,16,0.00
2013-5-22,86,80,73,70,68,64,79,67,57,30.03,29.94,13,7,17,0.00
2013-5-23,85,80,74,71,68,64,80,70,62,30.03,29.94,11,6,16,0.00
2013-5-24,84,79,72,70,67,61,79,68,56,30.03,29.96,9,6,14,0.00
2013-5-25,82,77,74,71,68,66,87,74,62,30.03,29.94,8,5,13,0.01
2013-5-26,84,76,72,72,69,66,89,78,64,30.05,29.97,9,5,14,0.08
2013-5-27,85,78,69,69,67,64,85,70,56,30.07,29.99,9,6,15,0.08
2013-5-28,85,79,70,70,69,67,92,73,58,30.08,30.00,9,6,14,0.38
2013-5-29,85,79,73,72,70,68,89,74,59,30.08,29.98,9,6,12,0.36
2013-5-30,82,78,71,71,70,66,92,76,64,30.03,29.91,8,4,12,0.33
2013-5-31,83,79,73,71,70,67,83,74,65,30.02,29.93,8,4,11,0.00
2013-6-1,86,80,72,71,69,66,81,70,56,30.06,29.96,9,5,14,0.00
2013-6-2,85,80,73,72,70,66,84,72,62,30.05,29.97,9,6,13,0.00
2013-6-3,84,76,74,70,52,-100,83,60,56,30.05,29.96,8,5,13,0.00
2013-6-4,85,78,71,69,67,62,82,69,57,30.01,29.94,10,5,16,0.00
2013-6-5,85,79,70,67,64,61,75,62,52,30.01,29.93,9,6,14,0.00
2013-6-6,84,74,72,67,50,-100,76,59,56,30.00,29.92,10,6,14,0.00
2013-6-7,83,74,74,68,57,-100,70,60,53,30.01,29.92,9,6,15,0.00
2013-6-8,84,78,71,68,65,61,75,65,56,30.03,29.93,8,6,12,0.00
2013-6-9,87,80,73,69,60,-100,78,63,55,30.04,29.97,10,6,15,0.00
2013-6-10,84,79,71,69,67,62,79,68,55,30.03,29.97,9,5,14,0.00
2013-6-11,82,78,72,69,67,64,77,70,61,30.00,29.94,7,5,11,0.00
2013-6-12,85,79,73,69,66,64,75,64,57,30.04,29.96,8,5,14,0.00
2013-6-13,84,78,72,70,68,63,89,71,58,30.05,29.98,10,6,15,0.25
2013-6-14,85,78,70,71,68,64,88,74,59,30.05,29.95,8,5,12,0.22
2013-6-15,84,78,72,69,65,62,77,64,53,29.99,29.90,8,5,12,0.00
2013-6-16,84,79,72,68,65,60,77,64,45,29.98,29.89,9,5,13,0.00
2013-6-17,85,80,74,70,66,63,70,64,57,30.04,29.94,10,5,13,0.00
2013-6-18,84,72,72,69,46,-100,80,58,51,30.03,29.97,7,4,11,0.00
2013-6-19,85,80,73,71,67,61,79,65,54,30.03,29.97,10,6,15,0.00
2013-10-19,-200,0,200,-100,-100,-100,0,0,100,29.85,29.85,5,5,9,0.00
2013-10-20,-200,0,200,-100,-100,-100,0,0,100,0.00,40.00,4,2,0,0.00